Flag for United Kingdom Weather past 2 weeks in Glasgow, Scotland, United Kingdom

Now
57 °F

Sunny.


Feels Like: 54 °F
Forecast: 42 / 59 °F
Wind: 15 mph from East

Location: Glasgow Airport


UV Index: 0 (Low)

Visibility: 10 mi


Pressure: 29.98 "Hg

Humidity: 44%

Dew point: 36 °F

Location of GlasgowLocation

Historic Weather in Glasgow

°F

Glasgow temperature yesterday

Maximum temperature yesterday: 63 °F (at 2:20 PM)
Minimum temperature yesterday: 30 °F (at 6:20 AM)
Average temperature yesterday: 47 °F

Past Weeks' High & Low Weather Summary

 TemperatureHumidityPressure
High63 °F (Apr 19, 2:20 PM)100% (Apr 7, 4:50 AM)30.42 "Hg (Apr 7, 4:50 AM)
Low28 °F (Apr 18, 5:20 AM)27% (Apr 19, 4:50 PM)29.45 "Hg (Apr 6, 10:20 AM)
Average48 °F78%30.00 "Hg
* Reported Apr 5 5:20 PM — Apr 20 5:20 PM, Glasgow, Weather by CustomWeather, © 2014

Note: Actual official high and low records may vary slightly from our data, if they occured in-between our weather recording intervals... More about our weather records

Advertising

Historic Weather Conditions — Data for Previous 24 hours

 ConditionsComfort  
Time TempWeatherWind HumidityBarometerVisibility
5:20 PM
Apr 20
57 °FSunny.16 mph48%29.98 "Hg10 mi
4:50 PM59 °FSunny.20 mph45%29.98 "Hg10 mi
4:20 PM59 °FSunny.16 mph45%29.98 "Hg10 mi
3:50 PM59 °FSunny.15 mph48%29.98 "Hg10 mi
3:20 PM59 °FSunny.14 mph51%30.01 "Hg10 mi
2:50 PM59 °FSunny.16 mph55%30.01 "Hg10 mi
2:20 PM59 °FSunny.16 mph51%30.01 "Hg10 mi
1:50 PM57 °FSunny.15 mph55%30.01 "Hg10 mi
1:20 PM57 °FSunny.14 mph55%30.01 "Hg10 mi
12:50 PM57 °FSunny.15 mph59%30.04 "Hg10 mi
12:20 PM54 °FSunny.13 mph63%30.04 "Hg10 mi
11:50 AM54 °FSunny.12 mph63%30.04 "Hg10 mi
11:20 AM52 °FSunny.10 mph67%30.07 "Hg10 mi
10:50 AM50 °FSunny.12 mph71%30.07 "Hg10 mi
10:20 AM48 °FPassing clouds.10 mph76%30.07 "HgN/A
9:50 AM48 °FPassing clouds.12 mph76%30.07 "HgN/A
9:20 AM46 °FScattered clouds.10 mph82%30.07 "HgN/A
8:50 AM45 °FPassing clouds.10 mph87%30.07 "HgN/A
8:20 AM43 °FPartly sunny.6 mph100%30.07 "Hg5 mi
7:50 AM41 °FPartly sunny.2 mph100%30.09 "Hg5 mi
7:20 AM39 °FPartly sunny.2 mph100%30.09 "Hg4 mi
6:50 AM39 °FPassing clouds.2 mph93%30.09 "Hg4 mi
6:20 AM36 °FPassing clouds.No wind100%30.09 "Hg4 mi
5:50 AM34 °FPassing clouds.2 mph100%30.09 "Hg4 mi
5:20 AM34 °FMostly cloudy.3 mph100%30.09 "Hg4 mi
4:50 AM32 °FPassing clouds.2 mph100%30.09 "Hg1 mi
4:20 AM34 °FPassing clouds.No wind100%30.09 "Hg4 mi
3:50 AM34 °FClear.2 mph93%30.12 "Hg5 mi
3:20 AM36 °FClear.2 mph93%30.12 "Hg10 mi
2:50 AM34 °FClear.2 mph100%30.12 "Hg10 mi
2:20 AM36 °FClear.2 mph93%30.12 "Hg10 mi
1:50 AM36 °FClear.2 mph93%30.12 "Hg5 mi
1:20 AM37 °FClear.2 mph93%30.12 "Hg10 mi
12:50 AM39 °FClear.3 mph87%30.12 "Hg10 mi
12:20 AM39 °FClear.2 mph87%30.12 "Hg10 mi
11:50 PM
Apr 19
39 °FClear.2 mph87%30.12 "Hg10 mi
11:20 PM39 °FClear.3 mph87%30.12 "Hg10 mi
10:50 PM41 °FClear.2 mph87%30.12 "Hg10 mi
10:20 PM43 °FClear.5 mph81%30.12 "Hg10 mi
9:50 PM45 °FPassing clouds.6 mph76%30.12 "HgN/A
9:20 PM46 °FSunny.7 mph71%30.09 "Hg10 mi
8:50 PM46 °FSunny.6 mph76%30.09 "Hg10 mi
8:20 PM50 °FSunny.3 mph71%30.09 "Hg10 mi
7:50 PM52 °FSunny.6 mph67%30.09 "Hg10 mi
7:20 PM52 °FSunny.8 mph67%30.09 "Hg10 mi
6:50 PM54 °FSunny.7 mph63%30.09 "Hg10 mi
6:20 PM57 °FSunny.9 mph44%30.07 "Hg10 mi
Weather by CustomWeather, © 2014

See weather overview